Location: ??????
(56.0120°N, 39.1740°E)
Time: 10:47:37
(UTC+00:00)

Aureole 3 Rocket - Pass Details

Date: 14 April 2026
Orbit: 399 x 1686 km, 82.5° (Epoch: 19 May)

Event Time Altitude Azimuth Distance (km) Brightness Sun altitude
Exits shadow 22:17:49 73° 223° (SW) 702 3.0 -23.4°
Maximum altitude 22:18:13 81° 283° (WNW) 694 3.2 -23.3°
Drops below altitude 10° 22:23:49 10° 12° (NNE) 2,547 7.3 -23.1°
Sets 22:26:44 0° 13° (NNE) 3,716 8.5 -23.0°
